TimeCDT,TemperatureF,Dew PointF,Humidity,Sea Level PressureIn,VisibilityMPH,Wind Direction,Wind SpeedMPH,Gust SpeedMPH,PrecipitationIn,Events,Conditions,WindDirDegrees,DateUTC
12:53 AM,68.0,64.0,87,29.87,10.0,South,8.1,-,N/A,,Clear,170,2013-10-03 05:53:00
1:53 AM,66.0,63.0,90,29.86,10.0,South,5.8,-,N/A,,Clear,170,2013-10-03 06:53:00
2:53 AM,66.0,64.0,93,29.86,9.0,South,5.8,-,N/A,,Clear,180,2013-10-03 07:53:00
3:53 AM,66.0,64.0,93,29.86,9.0,South,5.8,-,N/A,,Mostly Cloudy,170,2013-10-03 08:53:00
4:53 AM,66.9,64.9,93,29.86,10.0,South,6.9,-,N/A,,Mostly Cloudy,190,2013-10-03 09:53:00
5:53 AM,66.9,64.9,93,29.85,9.0,South,8.1,-,N/A,,Clear,180,2013-10-03 10:53:00
6:53 AM,66.0,64.9,96,29.84,9.0,South,8.1,-,0.00,,Partly Cloudy,180,2013-10-03 11:53:00
7:43 AM,66.2,66.2,100,29.85,8.0,South,10.4,-,N/A,,Partly Cloudy,180,2013-10-03 12:43:00
7:53 AM,68.0,66.0,93,29.84,8.0,South,11.5,-,N/A,,Scattered Clouds,190,2013-10-03 12:53:00
8:07 AM,68.0,66.2,94,29.85,10.0,SSW,11.5,-,N/A,,Mostly Cloudy,200,2013-10-03 13:07:00
8:53 AM,70.0,66.9,90,29.86,10.0,SSW,8.1,-,N/A,,Overcast,210,2013-10-03 13:53:00
9:26 AM,69.8,66.2,88,29.88,8.0,SSW,12.7,-,0.05,Rain-Thunderstorm,Light Thunderstorms and Rain,200,2013-10-03 14:26:00
9:32 AM,69.8,66.2,88,29.90,1.8,SSW,11.5,-,0.14,Rain-Thunderstorm,Heavy Thunderstorms and Rain,210,2013-10-03 14:32:00
9:39 AM,69.8,66.2,88,29.90,1.8,SSW,12.7,18.4,0.17,Rain-Thunderstorm,Heavy Thunderstorms and Rain,200,2013-10-03 14:39:00
9:43 AM,69.8,66.2,88,29.89,3.0,SSW,13.8,18.4,0.18,Rain-Thunderstorm,Light Thunderstorms and Rain,200,2013-10-03 14:43:00
9:53 AM,68.0,66.0,93,29.88,4.0,SSW,8.1,-,0.20,Rain-Thunderstorm,Light Rain,200,2013-10-03 14:53:00
10:19 AM,68.0,66.2,94,29.87,7.0,South,9.2,-,0.00,Rain-Thunderstorm,Light Rain,180,2013-10-03 15:19:00
10:40 AM,68.0,66.2,94,29.86,6.0,South,10.4,-,0.02,Rain,Light Rain,170,2013-10-03 15:40:00
10:53 AM,69.1,66.9,93,29.85,10.0,SSE,8.1,-,0.03,,Overcast,160,2013-10-03 15:53:00
11:36 AM,71.6,68.0,88,29.83,10.0,South,13.8,-,N/A,,Scattered Clouds,180,2013-10-03 16:36:00
11:53 AM,71.1,68.0,90,29.83,10.0,South,12.7,-,N/A,,Mostly Cloudy,190,2013-10-03 16:53:00
12:47 PM,75.2,68.0,78,29.82,10.0,South,10.4,-,N/A,,Scattered Clouds,180,2013-10-03 17:47:00
12:53 PM,75.0,68.0,79,29.79,10.0,South,10.4,-,N/A,,Scattered Clouds,170,2013-10-03 17:53:00
1:53 PM,79.0,66.9,66,29.77,10.0,South,11.5,18.4,N/A,,Partly Cloudy,180,2013-10-03 18:53:00
2:53 PM,79.0,66.9,66,29.77,10.0,South,11.5,-,N/A,,Partly Cloudy,170,2013-10-03 19:53:00
3:53 PM,80.1,64.9,60,29.76,10.0,SSW,10.4,18.4,N/A,,Clear,200,2013-10-03 20:53:00
4:53 PM,79.0,62.1,56,29.77,10.0,South,11.5,-,N/A,,Clear,190,2013-10-03 21:53:00
5:53 PM,77.0,62.1,60,29.78,10.0,SSW,8.1,-,N/A,,Scattered Clouds,210,2013-10-03 22:53:00
6:53 PM,72.0,63.0,73,29.80,10.0,SSW,3.5,-,N/A,,Partly Cloudy,210,2013-10-03 23:53:00
7:53 PM,71.1,63.0,75,29.81,10.0,SE,4.6,-,N/A,,Mostly Cloudy,140,2013-10-04 00:53:00
8:53 PM,70.0,63.0,78,29.82,10.0,ESE,5.8,-,N/A,,Mostly Cloudy,110,2013-10-04 01:53:00
9:53 PM,69.1,63.0,81,29.83,10.0,ESE,4.6,-,N/A,Thunderstorm,Clear,110,2013-10-04 02:53:00
11:26 PM,66.2,66.2,100,29.86,2.0,East,6.9,-,0.28,Rain-Thunderstorm,Light Thunderstorms and Rain,100,2013-10-04 04:26:00
11:28 PM,66.2,66.2,100,29.86,3.0,North,-9999.0,-,0.28,Rain-Thunderstorm,Light Thunderstorms and Rain,0,2013-10-04 04:28:00
11:53 PM,66.0,64.0,93,29.85,10.0,ESE,5.8,-,0.28,,Unknown,120,2013-10-04 04:53:00